Cas;Teplota [C];Tlak [hPa];Svetlo [lux];Rychlost vetru [km/h];Smer vetru [stupne]
2022-09-30 00:00:01;5,84;1006,7;6;0;0
2022-09-30 00:01:01;5,98;1006,74;5;0;0
2022-09-30 00:02:01;6,12;1006,72;5;0;0
2022-09-30 00:03:01;6,06;1006,74;6;0;0
2022-09-30 00:04:02;6,03;1006,72;6;0;0
2022-09-30 00:05:01;6,15;1006,7;5;0;0
2022-09-30 00:06:01;6,03;1006,69;6;0;0
2022-09-30 00:07:01;6,16;1006,77;5;0;0
2022-09-30 00:08:01;6,21;1006,79;6;0;0
2022-09-30 00:09:01;6,1;1006,82;6;0;0
2022-09-30 00:10:01;6,3;1006,73;5;0;0
2022-09-30 00:11:01;6,2;1006,78;5;0;0
2022-09-30 00:12:01;6,14;1006,82;5;0;0
2022-09-30 00:13:01;6,1;1006,83;5;0;0
2022-09-30 00:14:01;6,16;1006,77;5;0;0
2022-09-30 00:15:01;6,06;1006,86;5;0;0
2022-09-30 00:16:01;6,04;1006,9;5;0;0
2022-09-30 00:17:01;6,09;1006,91;5;0;0
2022-09-30 00:18:01;6,16;1006,83;6;0;0
2022-09-30 00:19:01;6,08;1006,99;5;0;0
2022-09-30 00:20:01;6,26;1006,97;6;0;0
2022-09-30 00:21:01;6,21;1006,93;5;0;0
2022-09-30 00:22:01;6,21;1007,04;5;0;0
2022-09-30 00:23:02;6,06;1006,92;6;0;0
2022-09-30 00:24:01;6,12;1006,89;6;0;0
2022-09-30 00:25:01;6,06;1006,94;5;0;0
2022-09-30 00:26:01;6,24;1007;7;0;0
2022-09-30 00:27:01;6,12;1006,99;5;0;0
2022-09-30 00:28:01;6,39;1007,05;6;0;0
2022-09-30 00:29:01;6,34;1007,1;5;0;0
2022-09-30 00:30:01;6,27;1007,04;5;0;0
2022-09-30 00:31:01;6,3;1007,07;5;0;0
2022-09-30 00:32:01;6,24;1007,18;5;0;0
2022-09-30 00:33:01;6,32;1007,25;5;0;0
2022-09-30 00:34:01;6,39;1007,12;5;0;0
2022-09-30 00:35:01;6,21;1007,13;5;0;0
2022-09-30 00:36:02;6,25;1007,14;5;0;0
2022-09-30 00:37:01;6,29;1007,15;5;0;0
2022-09-30 00:38:01;6,29;1007,27;4;0;0
2022-09-30 00:39:01;6,36;1007,32;5;0;0
2022-09-30 00:40:01;6,13;1007,31;4;0;0
2022-09-30 00:41:01;6,24;1007,37;5;0;0
2022-09-30 00:42:01;6,2;1007,29;5;0;0
2022-09-30 00:43:02;6,09;1007,27;5;0;0
2022-09-30 00:44:01;6,28;1007,27;5;0;0
2022-09-30 00:45:01;6,3;1007,26;5;0;0
2022-09-30 00:46:01;6,23;1007,24;6;0;0
2022-09-30 00:47:02;6,33;1007,29;6;0;0
2022-09-30 00:48:01;6,12;1007,25;6;0;0
2022-09-30 00:49:01;6,29;1007,28;6;0;0
2022-09-30 00:50:01;6,22;1007,32;6;0;0
2022-09-30 00:51:01;6,33;1007,32;6;0;0
2022-09-30 00:52:01;6,24;1007,33;5;0;0
2022-09-30 00:53:01;6,35;1007,33;5;0;0
2022-09-30 00:54:01;6,21;1007,37;5;0;0
2022-09-30 00:55:01;6,2;1007,3;6;0;0
2022-09-30 00:56:02;6,35;1007,28;6;0;0
2022-09-30 00:57:01;6,34;1007,3;6;0;0
2022-09-30 00:58:01;6,26;1007,31;6;0;0
2022-09-30 00:59:01;6,34;1007,33;5;0;0
2022-09-30 01:00:01;6,3;1007,37;6;0;0
2022-09-30 01:01:01;6,25;1007,34;5;0;0
2022-09-30 01:02:01;6,28;1007,29;5;0;0
2022-09-30 01:03:01;6,25;1007,36;5;0;0
2022-09-30 01:04:02;6,36;1007,29;6;0;0
2022-09-30 01:05:01;6,42;1007,3;5;0;0
2022-09-30 01:06:01;6,35;1007,36;5;0;0
2022-09-30 01:07:01;6,35;1007,41;5;0;0
2022-09-30 01:08:01;6,3;1007,46;6;0;0
2022-09-30 01:09:01;6,41;1007,44;5;0;0
2022-09-30 01:10:01;6,3;1007,47;5;0;0
2022-09-30 01:11:01;6,33;1007,45;6;0;0
2022-09-30 01:12:01;6,42;1007,43;5;0;0
2022-09-30 01:13:01;6,36;1007,46;6;0;0
2022-09-30 01:14:01;6,47;1007,39;6;0;0
2022-09-30 01:15:01;6,44;1007,39;6;0;0
2022-09-30 01:16:01;6,38;1007,41;6;0;0
2022-09-30 01:17:01;6,37;1007,31;5;0;0
2022-09-30 01:18:01;6,22;1007,42;5;0;0
2022-09-30 01:19:01;6,19;1007,43;5;0;0
2022-09-30 01:20:01;6,34;1007,43;6;0;0
2022-09-30 01:21:01;6,48;1007,47;6;0;0
2022-09-30 01:22:01;6,29;1007,49;6;0;0
2022-09-30 01:23:01;6,29;1007,56;6;0;0
2022-09-30 01:24:01;6,23;1007,54;6;0;0
2022-09-30 01:25:01;6,19;1007,48;6;0;0
2022-09-30 01:26:01;6,28;1007,47;6;0;0
2022-09-30 01:27:01;6,42;1007,48;6;0;0
2022-09-30 01:28:01;6,28;1007,58;5;0;0
2022-09-30 01:29:01;6,2;1007,52;5;0;0
2022-09-30 01:30:01;6,27;1007,48;6;0;0
2022-09-30 01:31:01;6,36;1007,54;5;0;0
2022-09-30 01:32:01;6,14;1007,61;6;0;0
2022-09-30 01:33:01;6,32;1007,54;5;0;0
2022-09-30 01:34:01;6,28;1007,57;5;0;0
2022-09-30 01:35:01;6,19;1007,58;5;0;0
2022-09-30 01:36:02;6,15;1007,59;6;0;0
2022-09-30 01:37:01;6,27;1007,62;6;0;0
2022-09-30 01:38:01;6,46;1007,58;6;0;0
2022-09-30 01:39:01;6,21;1007,56;6;0;0
2022-09-30 01:40:01;6,27;1007,55;5;0;0
2022-09-30 01:41:01;6,24;1007,54;6;0;0
2022-09-30 01:42:02;6,39;1007,51;5;0;0
2022-09-30 01:43:01;6,22;1007,5;6;0;0
2022-09-30 01:44:01;6,33;1007,47;6;0;0
2022-09-30 01:45:01;6,35;1007,58;6;0;0
2022-09-30 01:46:01;6,37;1007,47;6;0;0
2022-09-30 01:47:01;6,42;1007,51;6;0;0
2022-09-30 01:48:01;6,49;1007,56;6;0;0
2022-09-30 01:49:01;6,45;1007,49;5;0;0
2022-09-30 01:50:01;6,4;1007,41;5;0;0
2022-09-30 01:51:01;6,33;1007,46;6;0;0
2022-09-30 01:52:01;6,39;1007,45;5;0;0
2022-09-30 01:53:01;6,37;1007,45;6;0;0
2022-09-30 01:54:02;6,13;1007,45;4;0;0
2022-09-30 01:55:01;6,41;1007,51;5;0;0
2022-09-30 01:56:01;6,36;1007,52;6;0;0
2022-09-30 01:57:01;6,39;1007,47;6;0;0
2022-09-30 01:58:01;6,44;1007,51;5;0;0
2022-09-30 01:59:01;6,57;1007,58;6;0;0
2022-09-30 02:00:01;6,33;1007,55;6;0;0
2022-09-30 02:01:01;6,28;1007,56;6;0;0
2022-09-30 02:02:01;6,31;1007,6;6;0;0
2022-09-30 02:03:01;6,49;1007,59;6;0;0
2022-09-30 02:04:01;6,53;1007,52;5;0;0
2022-09-30 02:05:01;6,4;1007,49;6;0;0
2022-09-30 02:06:01;6,38;1007,53;6;0;0
2022-09-30 02:07:01;6,27;1007,55;5;0;0
2022-09-30 02:08:01;6,5;1007,53;5;0;0
2022-09-30 02:09:01;6,38;1007,52;5;0;0
2022-09-30 02:10:01;6,45;1007,5;5;0;0
2022-09-30 02:11:01;6,41;1007,55;5;0;0
2022-09-30 02:12:01;6,29;1007,54;4;0;0
2022-09-30 02:13:01;6,34;1007,61;5;0;0
2022-09-30 02:14:01;6,21;1007,54;6;0;0
2022-09-30 02:15:01;6,41;1007,56;5;0;0
2022-09-30 02:16:01;6,46;1007,66;6;0;0
2022-09-30 02:17:02;6,44;1007,62;5;0;0
2022-09-30 02:18:01;6,38;1007,66;6;0;0
2022-09-30 02:19:01;6,46;1007,61;5;0;0
2022-09-30 02:20:01;6,39;1007,62;5;0;0
2022-09-30 02:21:01;6,31;1007,62;5;0;0
2022-09-30 02:22:01;6,47;1007,6;6;0;0
2022-09-30 02:23:01;6,45;1007,54;6;0;0
2022-09-30 02:24:01;6,29;1007,55;5;0;0
2022-09-30 02:25:01;6,32;1007,52;6;0;0
2022-09-30 02:26:01;6,38;1007,52;6;0;0
2022-09-30 02:27:01;6,41;1007,59;6;0;0
2022-09-30 02:28:02;6,35;1007,6;5;0;0
2022-09-30 02:29:01;6,23;1007,61;6;0;0
2022-09-30 02:30:01;6,4;1007,66;7;0;0
2022-09-30 02:31:01;6,32;1007,64;6;0;0
2022-09-30 02:32:01;6,28;1007,67;5;0;0
2022-09-30 02:33:01;6,3;1007,69;5;0;0
2022-09-30 02:34:01;6,23;1007,72;5;0;0
2022-09-30 02:35:01;6,29;1007,7;6;0;0
2022-09-30 02:36:02;6,19;1007,63;5;0;0
2022-09-30 02:37:01;6,3;1007,63;5;0;0
2022-09-30 02:38:01;6,29;1007,68;5;0;0
2022-09-30 02:39:02;6,23;1007,66;5;0;0
2022-09-30 02:40:01;6,23;1007,73;6;0;0
2022-09-30 02:41:01;6,25;1007,64;6;0;0
2022-09-30 02:42:02;6,32;1007,68;6;0;0
2022-09-30 02:43:01;6,31;1007,66;7;0;0
2022-09-30 02:44:01;6,26;1007,69;6;0;0
2022-09-30 02:45:01;6,39;1007,72;6;0;0
2022-09-30 02:46:01;6,24;1007,7;6;0;0
2022-09-30 02:47:01;6,33;1007,74;5;0;0
2022-09-30 02:48:01;6,24;1007,7;6;0;0
2022-09-30 02:49:01;6,18;1007,72;6;0;0
2022-09-30 02:50:01;6,31;1007,69;5;0;0
2022-09-30 02:51:01;6,2;1007,68;6;0;0
2022-09-30 02:52:01;6,21;1007,73;5;0;0
2022-09-30 02:53:01;6,18;1007,76;5;0;0
2022-09-30 02:54:01;6,18;1007,73;5;0;0
2022-09-30 02:55:01;6,32;1007,7;5;0;0
2022-09-30 02:56:01;6,25;1007,75;5;0;0
2022-09-30 02:57:02;6,17;1007,74;6;0;0
2022-09-30 02:58:01;6,3;1007,73;6;0;0
2022-09-30 02:59:01;6,27;1007,76;5;0;0
2022-09-30 03:00:01;6,45;1007,73;5;0;0
2022-09-30 03:01:01;6,27;1007,77;5;0;0
2022-09-30 03:02:01;6,3;1007,78;6;0;0
2022-09-30 03:03:01;6,39;1007,84;5;0;0
2022-09-30 03:04:01;6,14;1007,8;6;0;0
2022-09-30 03:05:01;6,3;1007,76;5;0;0
2022-09-30 03:06:01;6,3;1007,8;6;0;0
2022-09-30 03:07:01;6,32;1007,81;6;0;0
2022-09-30 03:08:01;6,23;1007,78;6;0;0
2022-09-30 03:09:01;6,29;1007,85;5;0;0
2022-09-30 03:10:01;6,3;1007,85;6;0;0
2022-09-30 03:11:01;6,16;1007,84;5;0;0
2022-09-30 03:12:01;6,21;1007,85;6;0;0
2022-09-30 03:13:01;6,29;1007,79;5;0;0
2022-09-30 03:14:01;6,37;1007,75;6;0;0
2022-09-30 03:15:01;6,42;1007,81;6;0;0
2022-09-30 03:16:01;6,3;1007,8;5;0;0
2022-09-30 03:17:01;6,28;1007,74;6;0;0
2022-09-30 03:18:01;6,29;1007,77;6;0;0
2022-09-30 03:19:01;6,36;1007,78;6;0;0
2022-09-30 03:20:01;6,32;1007,75;6;0;0
2022-09-30 03:21:01;6,5;1007,82;6;0;0
2022-09-30 03:22:01;6,31;1007,76;6;0;0
2022-09-30 03:23:01;6,22;1007,85;5;0;0
2022-09-30 03:24:01;6,38;1007,89;6;0;0
2022-09-30 03:25:02;6,25;1007,89;5;0;0
2022-09-30 03:26:01;6,27;1007,89;6;0;0
2022-09-30 03:27:01;6,47;1008;6;0;0
2022-09-30 03:28:01;6,36;1008,04;6;0;0
2022-09-30 03:29:01;6,37;1008,01;7;0;0
2022-09-30 03:30:01;6,27;1007,97;6;0;0
2022-09-30 03:31:01;6,26;1007,95;6;0;0
2022-09-30 03:32:01;6,3;1007,9;6;0;0
2022-09-30 03:33:01;6,46;1007,9;5;0;0
2022-09-30 03:34:01;6,35;1007,89;5;0;0
2022-09-30 03:35:01;6,4;1007,88;6;0;0
2022-09-30 03:36:01;6,41;1007,94;6;0;0
2022-09-30 03:37:01;6,33;1007,94;6;0;0
2022-09-30 03:38:01;6,51;1008;6;0;0
2022-09-30 03:39:02;6,39;1008;5;0;0
2022-09-30 03:40:01;6,46;1008,02;5;0;0
2022-09-30 03:41:01;6,34;1008,08;5;0;0
2022-09-30 03:42:01;6,38;1008,16;6;0;0
2022-09-30 03:43:01;6,49;1008,23;5;0;0
2022-09-30 03:44:01;6,46;1008,22;6;0;0
2022-09-30 03:45:01;6,24;1008,19;5;0;0
2022-09-30 03:46:01;6,32;1008,25;5;0;0
2022-09-30 03:47:01;6,31;1008,14;5;0;0
2022-09-30 03:48:02;6,33;1008,14;5;0;0
2022-09-30 03:49:01;6,35;1008,12;6;0;0
2022-09-30 03:50:01;6,26;1008,19;6;0;0
2022-09-30 03:51:01;6,31;1008,18;6;0;0
2022-09-30 03:52:01;6,37;1008,26;5;0;0
2022-09-30 03:53:02;6,44;1008,17;5;0;0
2022-09-30 03:54:01;6,36;1008,21;6;0;0
2022-09-30 03:55:01;6,27;1008,24;6;0;0
2022-09-30 03:56:01;6,26;1008,23;6;0;0
2022-09-30 03:57:01;6,33;1008,29;5;0;0
2022-09-30 03:58:01;6,44;1008,3;6;0;0
2022-09-30 03:59:02;6,28;1008,31;6;0;0
2022-09-30 04:00:01;6,33;1008,31;5;0;0
2022-09-30 04:01:02;6,43;1008,35;5;0;0
2022-09-30 04:02:01;6,37;1008,42;6;0;0
2022-09-30 04:03:01;6,21;1008,31;6;0;0
2022-09-30 04:04:01;6,29;1008,31;5;0;0
2022-09-30 04:05:01;6,52;1008,3;6;0;0
2022-09-30 04:06:01;6,24;1008,25;5;0;0
2022-09-30 04:07:01;6,32;1008,21;5;0;0
2022-09-30 04:08:01;6,47;1008,28;6;0;0
2022-09-30 04:09:02;6,34;1008,4;6;0;0
2022-09-30 04:10:01;6,25;1008,39;6;0;0
2022-09-30 04:11:01;6,23;1008,36;6;0;0
2022-09-30 04:12:01;6,45;1008,44;5;0;0
2022-09-30 04:13:01;6,33;1008,39;5;0;0
2022-09-30 04:14:01;6,42;1008,38;6;0;0
2022-09-30 04:15:01;6,31;1008,3;6;0;0
2022-09-30 04:16:02;6,52;1008,26;6;0;0
2022-09-30 04:17:01;6,34;1008,33;6;0;0
2022-09-30 04:18:01;6,36;1008,37;5;0;0
2022-09-30 04:19:01;6,36;1008,37;6;0;0
2022-09-30 04:20:01;6,41;1008,36;6;0;0
2022-09-30 04:21:02;6,36;1008,41;6;0;0
2022-09-30 04:22:01;6,44;1008,46;6;0;0
2022-09-30 04:23:01;6,44;1008,41;6;0;0
2022-09-30 04:24:01;6,47;1008,36;6;0;0
2022-09-30 04:25:02;6,31;1008,37;6;0;0
2022-09-30 04:26:01;6,42;1008,43;5;0;0
2022-09-30 04:27:01;6,17;1008,43;6;0;0
2022-09-30 04:28:01;6,36;1008,44;6;0;0
2022-09-30 04:29:02;6,3;1008,4;5;0;0
2022-09-30 04:30:01;6,29;1008,49;5;0;0
2022-09-30 04:31:01;6,48;1008,56;6;0;0
2022-09-30 04:32:02;6,23;1008,53;6;0;0
2022-09-30 04:33:01;6,14;1008,46;6;0;0
2022-09-30 04:34:01;6,19;1008,45;5;0;0
2022-09-30 04:35:01;6,3;1008,46;6;0;0
2022-09-30 04:36:01;6,43;1008,39;5;0;0
2022-09-30 04:37:01;6,1;1008,46;5;0;0
2022-09-30 04:38:02;6,05;1008,49;6;0;0
2022-09-30 04:39:01;6,12;1008,48;6;0;0
2022-09-30 04:40:01;6,2;1008,53;5;0;0
2022-09-30 04:41:01;6,22;1008,45;6;0;0
2022-09-30 04:42:01;6,15;1008,46;5;0;0
2022-09-30 04:43:01;6,31;1008,46;5;0;0
2022-09-30 04:44:01;6,23;1008,42;5;0;0
2022-09-30 04:45:01;6,27;1008,36;6;0;0
2022-09-30 04:46:01;6,17;1008,32;6;0;0
2022-09-30 04:47:02;6,17;1008,34;6;0;0
2022-09-30 04:48:01;6,19;1008,49;6;0;0
2022-09-30 04:49:01;6,17;1008,43;4;0;0
2022-09-30 04:50:01;6,1;1008,42;6;0;0
2022-09-30 04:51:01;6,2;1008,28;6;0;0
2022-09-30 04:52:01;6,09;1008,39;5;0;0
2022-09-30 04:53:01;5,99;1008,45;5;0;0
2022-09-30 04:54:01;6,05;1008,49;5;0;0
2022-09-30 04:55:01;6,12;1008,42;6;0;0
2022-09-30 04:56:01;6,26;1008,55;6;0;0
2022-09-30 04:57:01;6,34;1008,54;6;0;0
2022-09-30 04:58:01;6,3;1008,47;6;0;0
2022-09-30 04:59:01;6,23;1008,47;6;0;0
2022-09-30 05:00:02;6,28;1008,52;5;0;0
2022-09-30 05:01:01;6,16;1008,53;6;0;0
2022-09-30 05:02:01;6,13;1008,56;6;0;0
2022-09-30 05:03:01;6,28;1008,63;6;0;0
2022-09-30 05:04:01;6,29;1008,53;6;0;0
2022-09-30 05:05:01;6,37;1008,53;6;0;0
2022-09-30 05:06:01;6,17;1008,57;6;0;0
2022-09-30 05:07:02;6,26;1008,54;6;0;0
2022-09-30 05:08:01;6,28;1008,63;5;0;0
2022-09-30 05:09:01;6,37;1008,6;7;0;0
2022-09-30 05:10:01;6,38;1008,55;5;0;0
2022-09-30 05:11:02;6,24;1008,58;5;0;0
2022-09-30 05:12:01;6,33;1008,56;7;0;0
2022-09-30 05:13:01;6,25;1008,51;5;0;0
2022-09-30 05:14:01;6,26;1008,52;7;0;0
2022-09-30 05:15:01;6,31;1008,51;6;0;0
2022-09-30 05:16:01;6,11;1008,52;6;0;0
2022-09-30 05:17:01;6,22;1008,56;6;0;0
2022-09-30 05:18:01;6,15;1008,53;7;0;0
2022-09-30 05:19:02;6,28;1008,51;6;0;0
2022-09-30 05:20:01;6,23;1008,49;6;0;0
2022-09-30 05:21:01;6,19;1008,5;5;0;0
2022-09-30 05:22:01;6,3;1008,51;5;0;0
2022-09-30 05:23:01;6,28;1008,6;6;0;0
2022-09-30 05:24:01;6,31;1008,62;6;0;0
2022-09-30 05:25:01;6,34;1008,66;6;0;0
2022-09-30 05:26:01;6,36;1008,64;6;0;0
2022-09-30 05:27:01;6,43;1008,62;5;0;0
2022-09-30 05:28:01;6,17;1008,61;5;0;0
2022-09-30 05:29:01;6,32;1008,57;6;0;0
2022-09-30 05:30:01;6,23;1008,64;6;0;0
2022-09-30 05:31:01;6,21;1008,63;6;0;0
2022-09-30 05:32:01;6,41;1008,59;6;0;0
2022-09-30 05:33:01;6,31;1008,65;5;0;0
2022-09-30 05:34:01;6,35;1008,61;6;0;0
2022-09-30 05:35:02;6,3;1008,62;5;0;0
2022-09-30 05:36:01;6,28;1008,6;5;0;0
2022-09-30 05:37:01;6,25;1008,6;5;0;0
2022-09-30 05:38:01;6,03;1008,64;6;0;0
2022-09-30 05:39:02;6,12;1008,63;6;0;0
2022-09-30 05:40:01;6,14;1008,6;6;0;0
2022-09-30 05:41:01;5,98;1008,67;6;0;0
2022-09-30 05:42:01;5,99;1008,59;6;0;0
2022-09-30 05:43:01;6,07;1008,61;7;0;0
2022-09-30 05:44:02;6,15;1008,54;6;0;0
2022-09-30 05:45:01;6,06;1008,55;5;0;0
2022-09-30 05:46:01;6,06;1008,58;5;0;0
2022-09-30 05:47:01;6,06;1008,59;4;0;0
2022-09-30 05:48:02;6;1008,58;5;0;0
2022-09-30 05:49:01;5,96;1008,58;5;0;0
2022-09-30 05:50:01;5,87;1008,59;6;0;0
2022-09-30 05:51:01;5,88;1008,53;6;0;0
2022-09-30 05:52:01;5,96;1008,5;6;0;0
2022-09-30 05:53:01;5,95;1008,55;5;0;0
2022-09-30 05:54:02;5,79;1008,62;5;0;0
2022-09-30 05:55:01;5,6;1008,68;6;0;0
2022-09-30 05:56:01;5,9;1008,64;6;0;0
2022-09-30 05:57:01;5,89;1008,64;6;0;0
2022-09-30 05:58:01;5,71;1008,68;6;0;0
2022-09-30 05:59:01;5,67;1008,72;6;0;0
2022-09-30 06:00:01;5,74;1008,65;6;0;0
2022-09-30 06:01:01;5,72;1008,75;5;0;0
2022-09-30 06:02:02;5,77;1008,76;5;0;0
2022-09-30 06:03:01;5,66;1008,77;5;0;0
2022-09-30 06:04:01;5,67;1008,86;5;0;0
2022-09-30 06:05:01;5,66;1008,84;5;0;0
2022-09-30 06:06:01;5,5;1008,84;6;0;0
2022-09-30 06:07:01;5,57;1008,81;6;0;0
2022-09-30 06:08:01;5,65;1008,77;6;0;0
2022-09-30 06:09:01;5,62;1008,81;5;0;0
2022-09-30 06:10:01;5,61;1008,86;5;0;0
2022-09-30 06:11:01;5,61;1008,8;6;0;0
2022-09-30 06:12:01;5,66;1008,84;6;0;0
2022-09-30 06:13:01;5,79;1008,83;6;0;0
2022-09-30 06:14:01;5,42;1008,83;7;0;0
2022-09-30 06:15:01;5,58;1008,84;6;0;0
2022-09-30 06:16:01;5,51;1008,82;5;0;0
2022-09-30 06:17:01;5,61;1008,74;5;0;0
2022-09-30 06:18:01;5,62;1008,8;6;0;0
2022-09-30 06:19:01;5,68;1008,86;5;0;0
2022-09-30 06:20:01;5,66;1008,77;5;0;0
2022-09-30 06:21:01;5,72;1008,7;7;0;0
2022-09-30 06:22:01;5,63;1008,79;6;0;0
2022-09-30 06:23:01;5,61;1008,79;6;0;0
2022-09-30 06:24:01;5,78;1008,81;7;0;0
2022-09-30 06:25:01;5,66;1008,82;6;0;0
2022-09-30 06:26:01;5,63;1008,82;6;0;0
2022-09-30 06:27:01;5,55;1008,93;6;0;0
2022-09-30 06:28:01;5,59;1008,87;7;0;0
2022-09-30 06:29:01;5,7;1008,95;7;0;0
2022-09-30 06:30:01;5,63;1008,97;7;0;0
2022-09-30 06:31:01;5,54;1008,95;6;0;0
2022-09-30 06:32:02;5,4;1008,97;6;0;0
2022-09-30 06:33:01;5,55;1009,04;8;0;0
2022-09-30 06:34:01;5,59;1009,06;7;0;0
2022-09-30 06:35:01;5,49;1009,01;7;0;0
2022-09-30 06:36:01;5,49;1009,13;8;0;0
2022-09-30 06:37:01;5,49;1009,1;9;0;0
2022-09-30 06:38:01;5,62;1009,12;9;0;0
2022-09-30 06:39:01;5,42;1009,19;12;0;0
2022-09-30 06:40:01;5,37;1009,22;14;0;0
2022-09-30 06:41:01;5,47;1009,25;17;0;0
2022-09-30 06:42:01;5,4;1009,26;20;0;0
2022-09-30 06:43:01;5,59;1009,24;25;0;0
2022-09-30 06:44:01;5,25;1009,26;31;0;0
2022-09-30 06:45:01;5,45;1009,18;37;0;0
2022-09-30 06:46:01;5,38;1009,21;47;0;0
2022-09-30 06:47:02;5,5;1009,19;55;0;0
2022-09-30 06:48:01;5,53;1009,25;66;0;0
2022-09-30 06:49:01;5,44;1009,18;76;0;0
2022-09-30 06:50:01;5,25;1009,14;89;0;0
2022-09-30 06:51:01;5,5;1009,13;101;0;0
2022-09-30 06:52:01;5,54;1009,23;111;0;0
2022-09-30 06:53:01;5,36;1009,26;121;0;0
2022-09-30 06:54:01;5,43;1009,29;128;0;0
2022-09-30 06:55:01;5,58;1009,22;132;0;0
2022-09-30 06:56:01;5,55;1009,18;138;0;0
2022-09-30 06:57:01;5,56;1009,2;145;0;0
2022-09-30 06:58:01;5,56;1009,19;153;0;0
2022-09-30 06:59:01;5,54;1009,21;164;0;0
2022-09-30 07:00:01;5,58;1009,27;173;0;0
2022-09-30 07:01:01;5,6;1009,23;183;0;0
2022-09-30 07:02:01;5,58;1009,29;192;0;0
2022-09-30 07:03:01;5,62;1009,26;200;0;0
2022-09-30 07:04:02;5,68;1009,35;206;0;0
2022-09-30 07:05:01;5,68;1009,38;209;0;0
2022-09-30 07:06:01;5,73;1009,39;214;0;0
2022-09-30 07:07:01;5,85;1009,46;216;0;0
2022-09-30 07:08:01;5,82;1009,48;217;0;0
2022-09-30 07:09:01;5,68;1009,36;218;0;0
2022-09-30 07:10:01;5,81;1009,41;218;0;0
2022-09-30 07:11:01;5,92;1009,45;218;0;0
2022-09-30 07:12:01;5,88;1009,5;222;0;0
2022-09-30 07:13:01;6,1;1009,48;229;0;0
2022-09-30 07:14:01;5,96;1009,37;237;0;0
2022-09-30 07:15:01;5,91;1009,4;248;0;0
2022-09-30 07:16:01;6,03;1009,43;259;0;0
2022-09-30 07:17:01;6,22;1009,45;272;0;0
2022-09-30 07:18:01;6,03;1009,45;284;0;0
2022-09-30 07:19:01;6,07;1009,54;293;0;0
2022-09-30 07:20:01;6,06;1009,52;305;0;0
2022-09-30 07:21:01;6;1009,52;320;0;0
2022-09-30 07:22:01;6;1009,5;335;0;0
2022-09-30 07:23:02;6,23;1009,48;351;0;0
2022-09-30 07:24:01;6,07;1009,51;362;0;0
2022-09-30 07:25:01;6,05;1009,47;380;0;0
2022-09-30 07:26:01;6,19;1009,48;405;0;0
2022-09-30 07:27:01;6,13;1009,5;425;0;0
2022-09-30 07:28:01;6,04;1009,43;457;0;0
2022-09-30 07:29:02;6,22;1009,41;520;0;0
2022-09-30 07:30:01;6,25;1009,42;619;0;0
2022-09-30 07:31:01;6,26;1009,4;698;0;0
2022-09-30 07:32:02;6,15;1009,43;739;0;0
2022-09-30 07:33:01;6,07;1009,38;766;0;0
2022-09-30 07:34:01;6,2;1009,45;752;0;0
2022-09-30 07:35:01;6,19;1009,52;752;0;0
2022-09-30 07:36:01;6,2;1009,55;819;0;0
2022-09-30 07:37:01;6,07;1009,48;886;0;0
2022-09-30 07:38:01;6,24;1009,5;893;0;0
2022-09-30 07:39:02;6,33;1009,56;932;0;0
2022-09-30 07:40:01;6,31;1009,55;973;0;0
2022-09-30 07:41:01;6,08;1009,64;1015;0;0
2022-09-30 07:42:01;6,21;1009,68;1048;0;0
2022-09-30 07:43:01;6,3;1009,65;1060;0;0
2022-09-30 07:44:01;6,3;1009,59;1072;0;0
2022-09-30 07:45:01;6,31;1009,59;1079;0;0
2022-09-30 07:46:01;6,36;1009,65;1083;0;0
2022-09-30 07:47:01;6,36;1009,65;1094;0;0
2022-09-30 07:48:01;6,49;1009,63;1104;0;0
2022-09-30 07:49:01;6,49;1009,7;1117;0;0
2022-09-30 07:50:01;6,42;1009,71;1127;0;0
2022-09-30 07:51:01;6,43;1009,78;1137;0;0
2022-09-30 07:52:01;6,44;1009,76;1150;0;0
2022-09-30 07:53:01;6,27;1009,73;1161;0;0
2022-09-30 07:54:01;6,3;1009,73;1165;0;0
2022-09-30 07:55:01;6,38;1009,67;1169;0;0
2022-09-30 07:56:01;6,52;1009,69;1181;0;0
2022-09-30 07:57:01;6,43;1009,64;1215;0;0
2022-09-30 07:58:02;6,34;1009,6;1250;0;0
2022-09-30 07:59:01;6,32;1009,59;1279;0;0
2022-09-30 08:00:01;6,46;1009,62;1308;0;0
2022-09-30 08:01:01;6,33;1009,59;1343;0;0
2022-09-30 08:02:01;6,49;1009,56;1380;0;0
2022-09-30 08:03:01;6,58;1009,6;1399;0;0
2022-09-30 08:04:01;6,67;1009,55;1402;0;0
2022-09-30 08:05:01;6,46;1009,56;1419;0;0
2022-09-30 08:06:02;6,51;1009,55;1436;0;0
2022-09-30 08:07:01;6,58;1009,62;1457;0;0
2022-09-30 08:08:01;6,58;1009,65;1472;0;0
2022-09-30 08:09:01;6,55;1009,68;1477;0;0
2022-09-30 08:10:02;6,62;1009,65;1485;0;0
2022-09-30 08:11:01;6,55;1009,73;1493;0;0
2022-09-30 08:12:02;6,69;1009,79;1500;0;0
2022-09-30 08:13:01;6,7;1009,8;1506;0;0
2022-09-30 08:14:01;6,73;1009,82;1507;0;0
2022-09-30 08:15:01;6,78;1009,86;1504;0;0
2022-09-30 08:16:01;6,83;1009,84;1504;0;0
2022-09-30 08:17:01;6,77;1009,8;1509;0;0
2022-09-30 08:18:02;6,93;1009,79;1523;0;0
2022-09-30 08:19:01;6,75;1009,76;1545;0;0
2022-09-30 08:20:01;6,8;1009,79;1570;0;0
2022-09-30 08:21:01;6,87;1009,81;1593;0;0
2022-09-30 08:22:01;6,93;1009,8;1609;0;0
2022-09-30 08:23:01;7,03;1009,84;1615;0;0
2022-09-30 08:24:01;7,13;1009,74;1623;0;0
2022-09-30 08:25:01;7,18;1009,83;1634;0;0
2022-09-30 08:26:01;7,17;1009,91;1648;0;0
2022-09-30 08:27:01;7,16;1009,94;1662;0;0
2022-09-30 08:28:01;7,24;1009,9;1672;0;0
2022-09-30 08:29:01;7,15;1009,88;1677;0;0
2022-09-30 08:30:01;7,1;1009,88;1680;0;0
2022-09-30 08:31:01;7,15;1009,9;1679;0;0
2022-09-30 08:32:01;7,36;1009,94;1680;0;0
2022-09-30 08:33:01;7,41;1009,93;1672;0;0
2022-09-30 08:34:01;7,34;1009,98;1674;0;0
2022-09-30 08:35:02;7,5;1010;1681;0;0
2022-09-30 08:36:01;7,54;1010;1682;0;0
2022-09-30 08:37:01;7,28;1010,03;1668;0;0
2022-09-30 08:38:01;7,47;1010,05;1638;0;0
2022-09-30 08:39:01;7,5;1010,18;1613;0;0
2022-09-30 08:40:01;7,5;1010,12;1623;0;0
2022-09-30 08:41:02;7,59;1010,13;1672;0;0
2022-09-30 08:42:01;7,61;1010,11;1743;0;0
2022-09-30 08:43:01;7,54;1010,16;1814;0;0
2022-09-30 08:44:01;7,63;1010,14;1854;0;0
2022-09-30 08:45:01;7,79;1010,1;1865;0;0
2022-09-30 08:46:02;7,59;1010,08;1844;0;0
2022-09-30 08:47:01;7,68;1010,05;1797;0;0
2022-09-30 08:48:01;7,48;1010,17;1754;0;0
2022-09-30 08:49:01;7,55;1010,06;1738;0;0
2022-09-30 08:50:01;7,62;1010,09;1739;0;0
2022-09-30 08:51:01;7,56;1010,15;1747;0;0
2022-09-30 08:52:01;7,67;1010,11;1752;0;0
2022-09-30 08:53:01;7,62;1010,18;1755;0;0
2022-09-30 08:54:01;7,77;1010,23;1763;0;0
2022-09-30 08:55:01;7,6;1010,17;1747;0;0
2022-09-30 08:56:01;7,85;1010,16;1719;0;0
2022-09-30 08:57:02;7,75;1010,25;1706;0;0
2022-09-30 08:58:01;7,78;1010,27;1705;0;0
2022-09-30 08:59:01;7,77;1010,38;1701;0;0
2022-09-30 09:00:01;7,89;1010,43;1693;0;0
2022-09-30 09:01:01;7,92;1010,29;1677;0;0
2022-09-30 09:02:01;7,94;1010,4;1678;0;0
2022-09-30 09:03:01;7,89;1010,31;1686;0;0
2022-09-30 09:04:01;7,89;1010,32;1694;0;0
2022-09-30 09:05:01;7,77;1010,39;1708;0;0
2022-09-30 09:06:01;8,11;1010,39;1724;0;0
2022-09-30 09:07:02;7,97;1010,36;1743;0;0
2022-09-30 09:08:01;8,13;1010,44;1758;0;0
2022-09-30 09:09:01;8,02;1010,43;1774;0;0
2022-09-30 09:10:01;8,1;1010,43;1795;0;0
2022-09-30 09:11:02;8,01;1010,52;1815;0;0
2022-09-30 09:12:01;8,13;1010,5;1833;0;0
2022-09-30 09:13:01;8,16;1010,5;1848;0;0
2022-09-30 09:14:01;8,14;1010,47;1861;0;0
2022-09-30 09:15:01;8,14;1010,49;1879;0;0
2022-09-30 09:16:01;8,21;1010,45;1901;0;0
2022-09-30 09:17:02;8,22;1010,44;1920;0;0
2022-09-30 09:18:01;8,18;1010,51;1933;0;0
2022-09-30 09:19:01;8,31;1010,52;1951;0;0
2022-09-30 09:20:02;8,35;1010,5;1973;0;0
2022-09-30 09:21:01;8,25;1010,53;1998;0;0
2022-09-30 09:22:01;8,29;1010,5;2011;0;0
2022-09-30 09:23:01;8,42;1010,56;2015;0;0
2022-09-30 09:24:01;8,51;1010,6;2010;0;0
2022-09-30 09:25:01;8,33;1010,55;2002;0;0
2022-09-30 09:26:01;8,49;1010,58;1998;0;0
2022-09-30 09:27:01;8,47;1010,58;2004;0;0
2022-09-30 09:28:01;8,26;1010,53;2005;0;0
2022-09-30 09:29:02;8,67;1010,51;2004;0;0
2022-09-30 09:30:01;8,88;1010,59;2014;0;0
2022-09-30 09:31:01;8,96;1010,56;2025;0;0
2022-09-30 09:32:01;9,09;1010,55;2029;0;0
2022-09-30 09:33:01;9,05;1010,5;2032;0;0
2022-09-30 09:34:01;9;1010,55;2036;0;0
2022-09-30 09:35:01;8,97;1010,54;2036;0;0
2022-09-30 09:36:01;9,15;1010,54;2042;0;0
2022-09-30 09:37:01;9,1;1010,53;2043;0;0
2022-09-30 09:38:02;9,19;1010,51;2039;0;0
2022-09-30 09:39:01;9,03;1010,51;2037;0;0
2022-09-30 09:40:01;9,03;1010,53;2035;0;0
2022-09-30 09:41:02;8,94;1010,46;2038;0;0
2022-09-30 09:42:01;9,16;1010,52;2046;0;0
2022-09-30 09:43:01;9,27;1010,54;2050;0;0
2022-09-30 09:44:01;9,24;1010,5;2059;0;0
2022-09-30 09:45:02;9,36;1010,59;2047;0;0
2022-09-30 09:46:01;9,29;1010,55;2046;0;0
2022-09-30 09:47:02;9,4;1010,61;2054;0;0
2022-09-30 09:48:01;9,36;1010,56;2064;0;0
2022-09-30 09:49:01;9,64;1010,51;2067;0;0
2022-09-30 09:50:01;9,79;1010,45;2063;0;0
2022-09-30 09:51:01;9,88;1010,46;2059;0;0
2022-09-30 09:52:01;9,64;1010,48;2056;0;0
2022-09-30 09:53:01;9,74;1010,46;2059;0;0
2022-09-30 09:54:01;9,87;1010,49;2059;0;0
2022-09-30 09:55:01;9,8;1010,52;2056;0;0
2022-09-30 09:56:01;9,82;1010,53;2055;0;0
2022-09-30 09:57:01;10,02;1010,51;2067;0;0
2022-09-30 09:58:01;9,89;1010,52;2083;0;0
2022-09-30 09:59:01;9,88;1010,5;2100;0;0
2022-09-30 10:00:01;9,93;1010,6;2109;0;0
2022-09-30 10:01:01;9,76;1010,6;2125;0;0
2022-09-30 10:02:01;9,85;1010,59;2131;0;0